カタログに戻る

ONEWEB-0022

運用中通信PO
NORAD 45135·PAYLOAD·🇬🇧 United Kingdom

打ち上げ Feb 6, 2020 から Baikonur Cosmodrome

Loading…

次のパス (今後24時間)

TLE

最新Source: Space-Track

元期: Sep 14, 2026, 06:55 UTC

1 45135U 20008E   26257.28869624 -.00000602  00000-0 -17575-2 0  9992
2 45135  87.8909  18.5745 0001453  94.1881 265.9412 13.10493314320020

AllMySatでONEWEB-0022をリアルタイム追跡

Download on the App Store